Grand Junction, CO

5:52 PM MDT on October 17, 2019 (GMT -0600)
Walker

Weather History for KGJT - May, 2019

Change the Weather History Date:

Monday, May 6, 2019

  Actual Average Record
Temperature  
Mean Temperature 61 °F 58 °F  
Max Temperature 75 °F 72 °F 87 °F (1947)
Min Temperature 46 °F 44 °F 30 °F (1999)
Degree Days  
Heating Degree Days 4 7  
Month to date heating degree days 66 48  
Since 1 July heating degree days 5463 5482  
Cooling Degree Days 0 1  
Month to date cooling degree days 0 3  
Year to date cooling degree days 1 6  
Growing Degree Days 10 (Base 50)    
Moisture  
Dew Point 38 °F    
Average Humidity 47    
Maximum Humidity 71    
Minimum Humidity 23    
Precipitation  
Precipitation T in 0.03 in 0.63 in (2015)
Month to date precipitation 0.04 0.19  
Year to date precipitation 5.09 3.14  
Snow  
Snow 0.00 in 0.00 in 0.10 in (1975)
Month to date snowfall 0.0 0.0  
Since 1 July snowfall 17.4 19.0  
Snow Depth 0.00 in    
Sea Level Pressure  
Sea Level Pressure 29.72 in    
Wind  
Wind Speed 8 mph (NE)    
Max Wind Speed 17 mph    
Max Gust Speed 22 mph    
Visibility 10 miles    
Events Rain    
T = Trace of Precipitation, MM = Missing Value Source: NWS Daily Summary

Daily Weather History Graph

Daily Weather History Graph

Search for Another Location

Airport or City:

Astronomy

May. 06, 2019 Rise Set
Actual Time 6:10 AM MDT 8:11 PM MDT
Civil Twilight 5:40 AM MDT 8:41 PM MDT
Nautical Twilight 5:05 AM MDT 9:17 PM MDT
Astronomical Twilight 4:26 AM MDT 9:55 PM MDT
Moon 7:34 AM MDT (5/6) 10:12 PM MDT (5/6)
Length of Visible Light 15h 00m
Length of Day
14h 01m
Waxing Crescent, 4% of the Moon is Illuminated
May 6
Waxing Crescent
May 11
First Quarter
May 18
Full
May 26
Last Quarter
Jun 3
New

Hourly Weather History & Observations

Time (MDT) Temp. Dew Point Humidity Pressure Visibility Wind Dir Wind Speed Gust Speed Precip Events Conditions
12:53 AM 53.1 °F 39.9 °F 61% 29.76 in 10.0 mi East 11.5 mph - N/A   Clear
1:53 AM 53.1 °F 39.9 °F 61% 29.75 in 10.0 mi ENE 11.5 mph - N/A   Clear
2:53 AM 48.9 °F 39.9 °F 71% 29.74 in 10.0 mi East 9.2 mph - N/A   Clear
3:53 AM 48.9 °F 39.0 °F 69% 29.76 in 10.0 mi ENE 8.1 mph - N/A   Clear
4:53 AM 48.0 °F 39.9 °F 74% 29.74 in 10.0 mi SE 9.2 mph - N/A   Clear
5:53 AM 48.0 °F 39.9 °F 74% 29.77 in 10.0 mi ESE 12.7 mph - N/A   Clear
6:53 AM 51.1 °F 39.9 °F 66% 29.79 in 10.0 mi East 9.2 mph - N/A   Clear
7:53 AM 57.0 °F 39.0 °F 51% 29.78 in 10.0 mi East 13.8 mph - N/A   Clear
8:53 AM 61.0 °F 37.9 °F 42% 29.78 in 10.0 mi East 10.4 mph - N/A   Clear
9:53 AM 63.0 °F 37.0 °F 38% 29.78 in 10.0 mi East 10.4 mph - N/A   Clear
10:53 AM 68.0 °F 37.9 °F 33% 29.75 in 10.0 mi ESE 11.5 mph - N/A   Clear
11:53 AM 69.1 °F 37.0 °F 31% 29.73 in 10.0 mi SE 5.8 mph - N/A   Clear
12:53 PM 69.1 °F 37.0 °F 31% 29.73 in 10.0 mi SW 4.6 mph - N/A   Partly Cloudy
1:53 PM 69.1 °F 39.9 °F 35% 29.72 in 10.0 mi WNW 3.5 mph - 0.00 in Rain Light Rain
2:53 PM 73.9 °F 37.0 °F 26% 29.69 in 10.0 mi West 4.6 mph - 0.00 in   Clear
3:53 PM 73.0 °F 34.0 °F 24% 29.68 in 10.0 mi NW 9.2 mph - N/A   Clear
4:53 PM 73.9 °F 35.1 °F 24% 29.66 in 10.0 mi WNW 9.2 mph - N/A   Clear
5:53 PM 73.0 °F 34.0 °F 24% 29.67 in 10.0 mi WNW 9.2 mph - N/A   Clear
6:53 PM 72.0 °F 36.0 °F 27% 29.67 in 10.0 mi West 9.2 mph - N/A   Clear
7:53 PM 68.0 °F 34.0 °F 28% 29.66 in 10.0 mi North 6.9 mph - N/A   Clear
8:53 PM 61.0 °F 37.9 °F 42% 29.67 in 10.0 mi ENE 4.6 mph - N/A   Clear
9:53 PM 59.0 °F 37.9 °F 46% 29.69 in 10.0 mi Calm Calm - N/A   Clear
10:53 PM 59.0 °F 37.0 °F 44% 29.69 in 10.0 mi North 8.1 mph - N/A   Clear
11:53 PM 57.9 °F 37.0 °F 46% 29.70 in 10.0 mi NNW 9.2 mph - N/A   Clear